Year,Month,Day,Hour,Minute,Value (Times are PST for temperature in C)
2021,08,01,00,00,25.50
2021,08,01,00,01,25.60
2021,08,01,00,02,25.60
2021,08,01,00,03,25.60
2021,08,01,00,04,25.60
2021,08,01,00,05,25.60
2021,08,01,00,06,25.60
2021,08,01,00,07,25.60
2021,08,01,00,08,25.60
2021,08,01,00,09,25.70
2021,08,01,00,10,25.70
2021,08,01,00,11,25.70
2021,08,01,00,12,25.70
2021,08,01,00,13,25.70
2021,08,01,00,14,25.70
2021,08,01,00,15,25.70
2021,08,01,00,16,25.70
2021,08,01,00,17,25.70
2021,08,01,00,18,25.70
2021,08,01,00,19,25.70
2021,08,01,00,20,25.70
2021,08,01,00,21,25.70
2021,08,01,00,22,25.70
2021,08,01,00,23,25.70
2021,08,01,00,24,25.70
2021,08,01,00,25,25.70
2021,08,01,00,26,25.70
2021,08,01,00,27,25.70
2021,08,01,00,28,25.70
2021,08,01,00,29,25.70
2021,08,01,00,30,25.70
2021,08,01,00,31,25.70
2021,08,01,00,32,25.70
2021,08,01,00,33,25.60
2021,08,01,00,34,25.60
2021,08,01,00,35,25.60
2021,08,01,00,36,25.60
2021,08,01,00,37,25.60
2021,08,01,00,38,25.60
2021,08,01,00,39,25.50
2021,08,01,00,40,25.50
2021,08,01,00,41,25.40
2021,08,01,00,42,25.40
2021,08,01,00,43,25.40
2021,08,01,00,44,25.40
2021,08,01,00,45,25.40
2021,08,01,00,46,25.30
2021,08,01,00,47,25.30
2021,08,01,00,48,25.30
2021,08,01,00,49,25.30
2021,08,01,00,50,25.30
2021,08,01,00,51,25.30
2021,08,01,00,52,25.30
2021,08,01,00,53,25.30
2021,08,01,00,54,25.30
2021,08,01,00,55,25.30
2021,08,01,00,56,25.30
2021,08,01,00,57,25.30
2021,08,01,00,58,25.30
2021,08,01,00,59,25.30
2021,08,01,01,00,25.30
2021,08,01,01,01,25.20
2021,08,01,01,02,25.20
2021,08,01,01,03,25.20
2021,08,01,01,04,25.20
2021,08,01,01,05,25.20
2021,08,01,01,06,25.10
2021,08,01,01,07,25.10
2021,08,01,01,08,25.10
2021,08,01,01,09,25.10
2021,08,01,01,10,25.00
2021,08,01,01,11,24.90
2021,08,01,01,12,24.90
2021,08,01,01,13,24.80
2021,08,01,01,14,24.80
2021,08,01,01,15,24.70
2021,08,01,01,16,24.60
2021,08,01,01,17,24.50
2021,08,01,01,18,24.40
2021,08,01,01,19,24.40
2021,08,01,01,20,24.30
2021,08,01,01,21,24.20
2021,08,01,01,22,24.10
2021,08,01,01,23,24.10
2021,08,01,01,24,24.00
2021,08,01,01,25,23.90
2021,08,01,01,26,23.90
2021,08,01,01,27,23.80
2021,08,01,01,28,23.70
2021,08,01,01,29,23.70
2021,08,01,01,30,23.70
2021,08,01,01,31,23.60
2021,08,01,01,32,23.60
2021,08,01,01,33,23.60
2021,08,01,01,34,23.50
2021,08,01,01,35,23.50
2021,08,01,01,36,23.50
2021,08,01,01,37,23.50
2021,08,01,01,38,23.50
2021,08,01,01,39,23.60
2021,08,01,01,40,23.60
2021,08,01,01,41,23.60
2021,08,01,01,42,23.60
2021,08,01,01,43,23.60
2021,08,01,01,44,23.60
2021,08,01,01,45,23.50
2021,08,01,01,46,23.40
2021,08,01,01,47,23.40
2021,08,01,01,48,23.30
2021,08,01,01,49,23.20
2021,08,01,01,50,23.10
2021,08,01,01,51,23.00
2021,08,01,01,52,22.90
2021,08,01,01,53,22.80
2021,08,01,01,54,22.80
2021,08,01,01,55,22.70
2021,08,01,01,56,22.70
2021,08,01,01,57,22.70
2021,08,01,01,58,22.60
2021,08,01,01,59,22.60
2021,08,01,02,00,22.60
2021,08,01,02,01,22.60
2021,08,01,02,02,22.60
2021,08,01,02,03,22.60
2021,08,01,02,04,22.60
2021,08,01,02,05,22.60
2021,08,01,02,06,22.70
2021,08,01,02,07,22.80
2021,08,01,02,08,22.80
2021,08,01,02,09,22.90
2021,08,01,02,10,22.90
2021,08,01,02,11,22.90
2021,08,01,02,12,23.00
2021,08,01,02,13,23.00
2021,08,01,02,14,23.10
2021,08,01,02,15,23.10
2021,08,01,02,16,23.20
2021,08,01,02,17,23.20
2021,08,01,02,18,23.20
2021,08,01,02,19,23.20
2021,08,01,02,20,23.30
2021,08,01,02,21,23.30
2021,08,01,02,22,23.30
2021,08,01,02,23,23.30
2021,08,01,02,24,23.30
2021,08,01,02,25,23.30
2021,08,01,02,26,23.30
2021,08,01,02,27,23.30
2021,08,01,02,28,23.20
2021,08,01,02,29,23.30
2021,08,01,02,30,23.20
2021,08,01,02,31,23.20
2021,08,01,02,32,23.20
2021,08,01,02,33,23.20
2021,08,01,02,34,23.20
2021,08,01,02,35,23.20
2021,08,01,02,36,23.20
2021,08,01,02,37,23.10
2021,08,01,02,38,23.20
2021,08,01,02,39,23.20
2021,08,01,02,40,23.10
2021,08,01,02,41,23.20
2021,08,01,02,42,23.20
2021,08,01,02,43,23.20
2021,08,01,02,44,23.20
2021,08,01,02,45,23.20
2021,08,01,02,46,23.20
2021,08,01,02,47,23.20
2021,08,01,02,48,23.20
2021,08,01,02,49,23.20
2021,08,01,02,50,23.20
2021,08,01,02,51,23.30
2021,08,01,02,52,23.30
2021,08,01,02,53,23.30
2021,08,01,02,54,23.30
2021,08,01,02,55,23.30
2021,08,01,02,56,23.30
2021,08,01,02,57,23.30
2021,08,01,02,58,23.30
2021,08,01,02,59,23.30
2021,08,01,03,00,23.30
2021,08,01,03,01,23.30
2021,08,01,03,02,23.30
2021,08,01,03,03,23.30
2021,08,01,03,04,23.30
2021,08,01,03,05,23.30
2021,08,01,03,06,23.30
2021,08,01,03,07,23.40
2021,08,01,03,08,23.40
2021,08,01,03,09,23.40
2021,08,01,03,10,23.40
2021,08,01,03,11,23.40
2021,08,01,03,12,23.40
2021,08,01,03,13,23.40
2021,08,01,03,14,23.40
2021,08,01,03,15,23.40
2021,08,01,03,16,23.40
2021,08,01,03,17,23.30
2021,08,01,03,18,23.30
2021,08,01,03,19,23.30
2021,08,01,03,20,23.30
2021,08,01,03,21,23.20
2021,08,01,03,22,23.20
2021,08,01,03,23,23.10
2021,08,01,03,24,23.10
2021,08,01,03,25,23.00
2021,08,01,03,26,23.00
2021,08,01,03,27,22.90
2021,08,01,03,28,22.90
2021,08,01,03,29,22.80
2021,08,01,03,30,22.80
2021,08,01,03,31,22.60
2021,08,01,03,32,22.40
2021,08,01,03,33,22.20
2021,08,01,03,34,21.90
2021,08,01,03,35,21.50
2021,08,01,03,36,21.20
2021,08,01,03,37,20.90
2021,08,01,03,38,20.60
2021,08,01,03,39,20.30
2021,08,01,03,40,20.00
2021,08,01,03,41,19.80
2021,08,01,03,42,19.60
2021,08,01,03,43,19.40
2021,08,01,03,44,19.30
2021,08,01,03,45,19.20
2021,08,01,03,46,19.10
2021,08,01,03,47,19.00
2021,08,01,03,48,18.90
2021,08,01,03,49,18.90
2021,08,01,03,50,18.80
2021,08,01,03,51,18.70
2021,08,01,03,52,18.70
2021,08,01,03,53,18.60
2021,08,01,03,54,18.60
2021,08,01,03,55,18.60
2021,08,01,03,56,18.50
2021,08,01,03,57,18.50
2021,08,01,03,58,18.50
2021,08,01,03,59,18.40
2021,08,01,04,00,18.40
2021,08,01,04,01,18.40
2021,08,01,04,02,18.40
2021,08,01,04,03,18.40
2021,08,01,04,04,18.30
2021,08,01,04,05,18.30
2021,08,01,04,06,18.30
2021,08,01,04,07,18.20
2021,08,01,04,08,18.10
2021,08,01,04,09,18.00
2021,08,01,04,10,17.90
2021,08,01,04,11,17.80
2021,08,01,04,12,17.70
2021,08,01,04,13,17.50
2021,08,01,04,14,17.40
2021,08,01,04,15,17.30
2021,08,01,04,16,17.10
2021,08,01,04,17,17.00
2021,08,01,04,18,16.90
2021,08,01,04,19,16.80
2021,08,01,04,20,16.70
2021,08,01,04,21,16.60
2021,08,01,04,22,16.60
2021,08,01,04,23,16.50
2021,08,01,04,24,16.40
2021,08,01,04,25,16.40
2021,08,01,04,26,16.40
2021,08,01,04,27,16.40
2021,08,01,04,28,16.30
2021,08,01,04,29,16.30
2021,08,01,04,30,16.40
2021,08,01,04,31,16.40
2021,08,01,04,32,16.50
2021,08,01,04,33,16.50
2021,08,01,04,34,16.50
2021,08,01,04,35,16.60
2021,08,01,04,36,16.70
2021,08,01,04,37,16.70
2021,08,01,04,38,16.80
2021,08,01,04,39,16.80
2021,08,01,04,40,16.90
2021,08,01,04,41,16.90
2021,08,01,04,42,17.00
2021,08,01,04,43,17.10
2021,08,01,04,44,17.10
2021,08,01,04,45,17.20
2021,08,01,04,46,17.20
2021,08,01,04,47,17.30
2021,08,01,04,48,17.30
2021,08,01,04,49,17.30
2021,08,01,04,50,17.40
2021,08,01,04,51,17.40
2021,08,01,04,52,17.50
2021,08,01,04,53,17.50
2021,08,01,04,54,17.60
2021,08,01,04,55,17.60
2021,08,01,04,56,17.60
2021,08,01,04,57,17.60
2021,08,01,04,58,17.70
2021,08,01,04,59,17.60
2021,08,01,05,00,17.60
2021,08,01,05,01,17.50
2021,08,01,05,02,17.50
2021,08,01,05,03,17.40
2021,08,01,05,04,17.40
2021,08,01,05,05,17.30
2021,08,01,05,06,17.30
2021,08,01,05,07,17.30
2021,08,01,05,08,17.30
2021,08,01,05,09,17.30
2021,08,01,05,10,17.30
2021,08,01,05,11,17.20
2021,08,01,05,12,17.20
2021,08,01,05,13,17.20
2021,08,01,05,14,17.20
2021,08,01,05,15,17.20
2021,08,01,05,16,17.20
2021,08,01,05,17,17.30
2021,08,01,05,18,17.30
2021,08,01,05,19,17.40
2021,08,01,05,20,17.50
2021,08,01,05,21,17.70
2021,08,01,05,22,17.80
2021,08,01,05,23,17.80
2021,08,01,05,24,17.90
2021,08,01,05,25,18.00
2021,08,01,05,26,18.10
2021,08,01,05,27,18.10
2021,08,01,05,28,18.30
2021,08,01,05,29,18.40
2021,08,01,05,30,18.50
2021,08,01,05,31,18.60
2021,08,01,05,32,18.70
2021,08,01,05,33,18.90
2021,08,01,05,34,19.00
2021,08,01,05,35,19.10
2021,08,01,05,36,19.20
2021,08,01,05,37,19.30
2021,08,01,05,38,19.30
2021,08,01,05,39,19.30
2021,08,01,05,40,19.30
2021,08,01,05,41,19.30
2021,08,01,05,42,19.20
2021,08,01,05,43,19.00
2021,08,01,05,44,18.90
2021,08,01,05,45,18.70
2021,08,01,05,46,18.40
2021,08,01,05,47,18.30
2021,08,01,05,48,18.10
2021,08,01,05,49,17.90
2021,08,01,05,50,17.70
2021,08,01,05,51,17.60
2021,08,01,05,52,17.40
2021,08,01,05,53,17.30
2021,08,01,05,54,17.20
2021,08,01,05,55,17.10
2021,08,01,05,56,17.10
2021,08,01,05,57,17.20
2021,08,01,05,58,17.30
2021,08,01,05,59,17.30
2021,08,01,06,00,17.40
2021,08,01,06,01,17.40
2021,08,01,06,02,17.50
2021,08,01,06,03,17.50
2021,08,01,06,04,17.50
2021,08,01,06,05,17.50
2021,08,01,06,06,17.50
2021,08,01,06,07,17.50
2021,08,01,06,08,17.50
2021,08,01,06,09,17.50
2021,08,01,06,10,17.50
2021,08,01,06,11,17.50
2021,08,01,06,12,17.40
2021,08,01,06,13,17.30
2021,08,01,06,14,17.20
2021,08,01,06,15,17.10
2021,08,01,06,16,16.90
2021,08,01,06,17,16.80
2021,08,01,06,18,16.70
2021,08,01,06,19,16.60
2021,08,01,06,20,16.50
2021,08,01,06,21,16.40
2021,08,01,06,22,16.30
2021,08,01,06,23,16.20
2021,08,01,06,24,16.20
2021,08,01,06,25,16.10
2021,08,01,06,26,16.10
2021,08,01,06,27,16.00
2021,08,01,06,28,15.90
2021,08,01,06,29,15.90
2021,08,01,06,30,15.80
2021,08,01,06,31,15.80
2021,08,01,06,32,15.80
2021,08,01,06,33,15.70
2021,08,01,06,34,15.70
2021,08,01,06,35,15.70
2021,08,01,06,36,15.70
2021,08,01,06,37,15.70
2021,08,01,06,38,15.80
2021,08,01,06,39,15.80
2021,08,01,06,40,15.90
2021,08,01,06,41,16.00
2021,08,01,06,42,16.10
2021,08,01,06,43,16.20
2021,08,01,06,44,16.30
2021,08,01,06,45,16.30
2021,08,01,06,46,16.40
2021,08,01,06,47,16.50
2021,08,01,06,48,16.60
2021,08,01,06,49,16.70
2021,08,01,06,50,16.80
2021,08,01,06,51,16.80
2021,08,01,06,52,16.90
2021,08,01,06,53,16.90
2021,08,01,06,54,16.90
2021,08,01,06,55,17.00
2021,08,01,06,56,17.00
2021,08,01,06,57,17.00
2021,08,01,06,58,17.00
2021,08,01,06,59,17.00
2021,08,01,07,00,17.00
2021,08,01,07,01,17.00
2021,08,01,07,02,17.00
2021,08,01,07,03,16.90
2021,08,01,07,04,16.90
2021,08,01,07,05,16.90
2021,08,01,07,06,16.90
2021,08,01,07,07,16.90
2021,08,01,07,08,16.90
2021,08,01,07,09,16.90
2021,08,01,07,10,16.90
2021,08,01,07,11,16.90
2021,08,01,07,12,16.90
2021,08,01,07,13,16.90
2021,08,01,07,14,16.90
2021,08,01,07,15,16.90
2021,08,01,07,16,16.90
2021,08,01,07,17,17.00
2021,08,01,07,18,17.00
2021,08,01,07,19,17.00
2021,08,01,07,20,17.00
2021,08,01,07,21,17.10
2021,08,01,07,22,17.10
2021,08,01,07,23,17.10
2021,08,01,07,24,17.10
2021,08,01,07,25,17.10
2021,08,01,07,26,17.20
2021,08,01,07,27,17.20
2021,08,01,07,28,17.30
2021,08,01,07,29,17.30
2021,08,01,07,30,17.40
2021,08,01,07,31,17.50
2021,08,01,07,32,17.60
2021,08,01,07,33,17.60
2021,08,01,07,34,17.60
2021,08,01,07,35,17.70
2021,08,01,07,36,17.70
2021,08,01,07,37,17.80
2021,08,01,07,38,17.80
2021,08,01,07,39,17.80
2021,08,01,07,40,17.80
2021,08,01,07,41,17.90
2021,08,01,07,42,17.90
2021,08,01,07,43,17.90
2021,08,01,07,44,17.90
2021,08,01,07,45,17.90
2021,08,01,07,46,17.90
2021,08,01,07,47,17.90
2021,08,01,07,48,17.90
2021,08,01,07,49,17.90
2021,08,01,07,50,17.90
2021,08,01,07,51,17.90
2021,08,01,07,52,17.90
2021,08,01,07,53,17.90
2021,08,01,07,54,17.90
2021,08,01,07,55,17.90
2021,08,01,07,56,17.90
2021,08,01,07,57,17.80
2021,08,01,07,58,17.70
2021,08,01,07,59,17.60
2021,08,01,08,00,17.60
2021,08,01,08,01,17.60
2021,08,01,08,02,17.60
2021,08,01,08,03,17.60
2021,08,01,08,04,17.60
2021,08,01,08,05,17.50
2021,08,01,08,06,17.60
2021,08,01,08,07,17.60
2021,08,01,08,08,17.50
2021,08,01,08,09,17.60
2021,08,01,08,10,17.60
2021,08,01,08,11,17.60
2021,08,01,08,12,17.60
2021,08,01,08,13,17.70
2021,08,01,08,14,17.70
2021,08,01,08,15,17.70
2021,08,01,08,16,17.70
2021,08,01,08,17,17.70
2021,08,01,08,18,17.70
2021,08,01,08,19,17.70
2021,08,01,08,20,17.60
2021,08,01,08,21,17.60
2021,08,01,08,22,17.60
2021,08,01,08,23,17.60
2021,08,01,08,24,17.60
2021,08,01,08,25,17.50
2021,08,01,08,26,17.50
2021,08,01,08,27,17.50
2021,08,01,08,28,17.50
2021,08,01,08,29,17.50
2021,08,01,08,30,17.50
2021,08,01,08,31,17.50
2021,08,01,08,32,17.50
2021,08,01,08,33,17.50
2021,08,01,08,34,17.50
2021,08,01,08,35,17.50
2021,08,01,08,36,17.50
2021,08,01,08,37,17.50
2021,08,01,08,38,17.50
2021,08,01,08,39,17.60
2021,08,01,08,40,17.60
2021,08,01,08,41,17.70
2021,08,01,08,42,17.80
2021,08,01,08,43,17.80
2021,08,01,08,44,17.90
2021,08,01,08,45,18.00
2021,08,01,08,46,18.10
2021,08,01,08,47,18.20
2021,08,01,08,48,18.30
2021,08,01,08,49,18.40
2021,08,01,08,50,18.50
2021,08,01,08,51,18.60
2021,08,01,08,52,18.70
2021,08,01,08,53,18.80
2021,08,01,08,54,18.90
2021,08,01,08,55,19.00
2021,08,01,08,56,19.10
2021,08,01,08,57,19.10
2021,08,01,08,58,19.20
2021,08,01,08,59,19.20
2021,08,01,09,00,19.20
2021,08,01,09,01,19.20
2021,08,01,09,02,19.30
2021,08,01,09,03,19.30
2021,08,01,09,04,19.30
2021,08,01,09,05,19.40
2021,08,01,09,06,19.40
2021,08,01,09,07,19.50
2021,08,01,09,08,19.60
2021,08,01,09,09,19.60
2021,08,01,09,10,19.60
2021,08,01,09,11,19.70
2021,08,01,09,12,19.80
2021,08,01,09,13,19.80
2021,08,01,09,14,19.90
2021,08,01,09,15,19.90
2021,08,01,09,16,20.00
2021,08,01,09,17,20.10
2021,08,01,09,18,20.10
2021,08,01,09,19,20.20
2021,08,01,09,20,20.30
2021,08,01,09,21,20.30
2021,08,01,09,22,20.40
2021,08,01,09,23,20.50
2021,08,01,09,24,20.60
2021,08,01,09,25,20.60
2021,08,01,09,26,20.70
2021,08,01,09,27,20.80
2021,08,01,09,28,20.90
2021,08,01,09,29,20.90
2021,08,01,09,30,21.00
2021,08,01,09,31,21.10
2021,08,01,09,32,21.20
2021,08,01,09,33,21.30
2021,08,01,09,34,21.30
2021,08,01,09,35,21.40
2021,08,01,09,36,21.50
2021,08,01,09,37,21.60
2021,08,01,09,38,21.70
2021,08,01,09,39,21.70
2021,08,01,09,40,21.80
2021,08,01,09,41,21.90
2021,08,01,09,42,21.90
2021,08,01,09,43,21.90
2021,08,01,09,44,22.00
2021,08,01,09,45,22.00
2021,08,01,09,46,22.10
2021,08,01,09,47,22.10
2021,08,01,09,48,22.20
2021,08,01,09,49,22.20
2021,08,01,09,50,22.20
2021,08,01,09,51,22.30
2021,08,01,09,52,22.30
2021,08,01,09,53,22.30
2021,08,01,09,54,22.30
2021,08,01,09,55,22.30
2021,08,01,09,56,22.30
2021,08,01,09,57,22.30
2021,08,01,09,58,22.40
2021,08,01,09,59,22.50
2021,08,01,10,00,22.50
2021,08,01,10,01,22.60
2021,08,01,10,02,22.70
2021,08,01,10,03,22.70
2021,08,01,10,04,22.80
2021,08,01,10,05,22.80
2021,08,01,10,06,22.90
2021,08,01,10,07,23.00
2021,08,01,10,08,23.00
2021,08,01,10,09,23.00
2021,08,01,10,10,23.10
2021,08,01,10,11,23.10
2021,08,01,10,12,23.10
2021,08,01,10,13,23.10
2021,08,01,10,14,23.10
2021,08,01,10,15,23.10
2021,08,01,10,16,23.10
2021,08,01,10,17,23.10
2021,08,01,10,18,23.10
2021,08,01,10,19,23.20
2021,08,01,10,20,23.20
2021,08,01,10,21,23.20
2021,08,01,10,22,23.20
2021,08,01,10,23,23.20
2021,08,01,10,24,23.20
2021,08,01,10,25,23.20
2021,08,01,10,26,23.20
2021,08,01,10,27,23.20
2021,08,01,10,28,23.20
2021,08,01,10,29,23.20
2021,08,01,10,30,23.20
2021,08,01,10,31,23.20
2021,08,01,10,32,23.30
2021,08,01,10,33,23.30
2021,08,01,10,34,23.30
2021,08,01,10,35,23.30
2021,08,01,10,36,23.30
2021,08,01,10,37,23.30
2021,08,01,10,38,23.20
2021,08,01,10,39,23.20
2021,08,01,10,40,23.20
2021,08,01,10,41,23.20
2021,08,01,10,42,23.20
2021,08,01,10,43,23.20
2021,08,01,10,44,23.20
2021,08,01,10,45,23.10
2021,08,01,10,46,23.10
2021,08,01,10,47,23.10
2021,08,01,10,48,23.10
2021,08,01,10,49,23.10
2021,08,01,10,50,23.10
2021,08,01,10,51,23.00
2021,08,01,10,52,23.00
2021,08,01,10,53,23.00
2021,08,01,10,54,23.00
2021,08,01,10,55,23.00
2021,08,01,10,56,23.00
2021,08,01,10,57,23.00
2021,08,01,10,58,23.00
2021,08,01,10,59,23.10
2021,08,01,11,00,23.10
2021,08,01,11,01,23.20
2021,08,01,11,02,23.20
2021,08,01,11,03,23.20
2021,08,01,11,04,23.30
2021,08,01,11,05,23.30
2021,08,01,11,06,23.30
2021,08,01,11,07,23.40
2021,08,01,11,08,23.50
2021,08,01,11,09,23.50
2021,08,01,11,10,23.60
2021,08,01,11,11,23.60
2021,08,01,11,12,23.60
2021,08,01,11,13,23.60
2021,08,01,11,14,23.60
2021,08,01,11,15,23.60
2021,08,01,11,16,23.60
2021,08,01,11,17,23.60
2021,08,01,11,18,23.60
2021,08,01,11,19,23.60
2021,08,01,11,20,23.60
2021,08,01,11,21,23.60
2021,08,01,11,22,23.70
2021,08,01,11,23,23.60
2021,08,01,11,24,23.70
2021,08,01,11,25,23.70
2021,08,01,11,26,23.70
2021,08,01,11,27,23.70
2021,08,01,11,28,23.70
2021,08,01,11,29,23.70
2021,08,01,11,30,23.70
2021,08,01,11,31,23.70
2021,08,01,11,32,23.70
2021,08,01,11,33,23.70
2021,08,01,11,34,23.70
2021,08,01,11,35,23.80
2021,08,01,11,36,23.80
2021,08,01,11,37,23.90
2021,08,01,11,38,23.90
2021,08,01,11,39,23.90
2021,08,01,11,40,23.90
2021,08,01,11,41,24.00
2021,08,01,11,42,24.00
2021,08,01,11,43,24.10
2021,08,01,11,44,24.10
2021,08,01,11,45,24.20
2021,08,01,11,46,24.30
2021,08,01,11,47,24.30
2021,08,01,11,48,24.40
2021,08,01,11,49,24.40
2021,08,01,11,50,24.50
2021,08,01,11,51,24.50
2021,08,01,11,52,24.50
2021,08,01,11,53,24.50
2021,08,01,11,54,24.60
2021,08,01,11,55,24.60
2021,08,01,11,56,24.60
2021,08,01,11,57,24.60
2021,08,01,11,58,24.60
2021,08,01,11,59,24.70
2021,08,01,12,00,24.70
2021,08,01,12,01,24.70
2021,08,01,12,02,24.70
2021,08,01,12,03,24.60
2021,08,01,12,04,24.60
2021,08,01,12,05,24.60
2021,08,01,12,06,24.70
2021,08,01,12,07,24.70
2021,08,01,12,08,24.80
2021,08,01,12,09,24.80
2021,08,01,12,10,24.80
2021,08,01,12,11,24.80
2021,08,01,12,12,24.80
2021,08,01,12,13,24.80
2021,08,01,12,14,24.80
2021,08,01,12,15,24.80
2021,08,01,12,16,24.80
2021,08,01,12,17,24.80
2021,08,01,12,18,24.80
2021,08,01,12,19,24.80
2021,08,01,12,20,24.80
2021,08,01,12,21,24.80
2021,08,01,12,22,24.80
2021,08,01,12,23,24.80
2021,08,01,12,24,24.80
2021,08,01,12,25,24.80
2021,08,01,12,26,24.70
2021,08,01,12,27,24.70
2021,08,01,12,28,24.70
2021,08,01,12,29,24.70
2021,08,01,12,30,24.80
2021,08,01,12,31,24.90
2021,08,01,12,32,25.00
2021,08,01,12,33,25.00
2021,08,01,12,34,25.00
2021,08,01,12,35,25.00
2021,08,01,12,36,25.10
2021,08,01,12,37,25.10
2021,08,01,12,38,25.20
2021,08,01,12,39,25.30
2021,08,01,12,40,25.30
2021,08,01,12,41,25.30
2021,08,01,12,42,25.30
2021,08,01,12,43,25.30
2021,08,01,12,44,25.30
2021,08,01,12,45,25.30
2021,08,01,12,46,25.40
2021,08,01,12,47,25.60
2021,08,01,12,48,25.60
2021,08,01,12,49,25.70
2021,08,01,12,50,25.80
2021,08,01,12,51,25.90
2021,08,01,12,52,26.10
2021,08,01,12,53,26.10
2021,08,01,12,54,26.20
2021,08,01,12,55,26.20
2021,08,01,12,56,26.30
2021,08,01,12,57,26.30
2021,08,01,12,58,26.30
2021,08,01,12,59,26.30
2021,08,01,13,00,26.30
2021,08,01,13,01,26.30
2021,08,01,13,02,26.30
2021,08,01,13,03,26.30
2021,08,01,13,04,26.30
2021,08,01,13,05,26.30
2021,08,01,13,06,26.20
2021,08,01,13,07,26.30
2021,08,01,13,08,26.20
2021,08,01,13,09,26.30
2021,08,01,13,10,26.30
2021,08,01,13,11,26.40
2021,08,01,13,12,26.50
2021,08,01,13,13,26.60
2021,08,01,13,14,26.60
2021,08,01,13,15,26.60
2021,08,01,13,16,26.50
2021,08,01,13,17,26.50
2021,08,01,13,18,26.40
2021,08,01,13,19,26.40
2021,08,01,13,20,26.40
2021,08,01,13,21,26.50
2021,08,01,13,22,26.60
2021,08,01,13,23,26.80
2021,08,01,13,24,26.90
2021,08,01,13,25,27.00
2021,08,01,13,26,27.10
2021,08,01,13,27,27.10
2021,08,01,13,28,27.20
2021,08,01,13,29,27.20
2021,08,01,13,30,27.20
2021,08,01,13,31,27.20
2021,08,01,13,32,27.20
2021,08,01,13,33,27.20
2021,08,01,13,34,27.30
2021,08,01,13,35,27.20
2021,08,01,13,36,27.20
2021,08,01,13,37,27.20
2021,08,01,13,38,27.10
2021,08,01,13,39,27.00
2021,08,01,13,40,26.90
2021,08,01,13,41,27.00
2021,08,01,13,42,27.00
2021,08,01,13,43,27.00
2021,08,01,13,44,27.00
2021,08,01,13,45,27.10
2021,08,01,13,46,27.10
2021,08,01,13,47,27.20
2021,08,01,13,48,27.20
2021,08,01,13,49,27.30
2021,08,01,13,50,27.30
2021,08,01,13,51,27.40
2021,08,01,13,52,27.50
2021,08,01,13,53,27.60
2021,08,01,13,54,27.60
2021,08,01,13,55,27.60
2021,08,01,13,56,27.60
2021,08,01,13,57,27.70
2021,08,01,13,58,27.70
2021,08,01,13,59,27.70
2021,08,01,14,00,27.70
2021,08,01,14,01,27.60
2021,08,01,14,02,27.50
2021,08,01,14,03,27.40
2021,08,01,14,04,27.40
2021,08,01,14,05,27.40
2021,08,01,14,06,27.30
2021,08,01,14,07,27.40
2021,08,01,14,08,27.50
2021,08,01,14,09,27.50
2021,08,01,14,10,27.40
2021,08,01,14,11,27.30
2021,08,01,14,12,27.20
2021,08,01,14,13,27.20
2021,08,01,14,14,27.20
2021,08,01,14,15,27.20
2021,08,01,14,16,27.20
2021,08,01,14,17,27.20
2021,08,01,14,18,27.30
2021,08,01,14,19,27.30
2021,08,01,14,20,27.40
2021,08,01,14,21,27.50
2021,08,01,14,22,27.70
2021,08,01,14,23,27.70
2021,08,01,14,24,27.80
2021,08,01,14,25,27.80
2021,08,01,14,26,27.80
2021,08,01,14,27,27.80
2021,08,01,14,28,27.80
2021,08,01,14,29,27.80
2021,08,01,14,30,27.80
2021,08,01,14,31,27.70
2021,08,01,14,32,27.70
2021,08,01,14,33,27.70
2021,08,01,14,34,27.70
2021,08,01,14,35,27.70
2021,08,01,14,36,27.70
2021,08,01,14,37,27.70
2021,08,01,14,38,27.60
2021,08,01,14,39,27.60
2021,08,01,14,40,27.60
2021,08,01,14,41,27.50
2021,08,01,14,42,27.50
2021,08,01,14,43,27.60
2021,08,01,14,44,27.60
2021,08,01,14,45,27.70
2021,08,01,14,46,27.70
2021,08,01,14,47,27.70
2021,08,01,14,48,27.80
2021,08,01,14,49,27.80
2021,08,01,14,50,27.80
2021,08,01,14,51,27.80
2021,08,01,14,52,27.70
2021,08,01,14,53,27.60
2021,08,01,14,54,27.60
2021,08,01,14,55,27.50
2021,08,01,14,56,27.50
2021,08,01,14,57,27.50
2021,08,01,14,58,27.60
2021,08,01,14,59,27.60
2021,08,01,15,00,27.70
2021,08,01,15,01,27.70
2021,08,01,15,02,27.80
2021,08,01,15,03,27.80
2021,08,01,15,04,27.90
2021,08,01,15,05,28.00
2021,08,01,15,06,28.10
2021,08,01,15,07,28.20
2021,08,01,15,08,28.30
2021,08,01,15,09,28.20
2021,08,01,15,10,28.10
2021,08,01,15,11,28.10
2021,08,01,15,12,28.00
2021,08,01,15,13,27.90
2021,08,01,15,14,27.90
2021,08,01,15,15,27.80
2021,08,01,15,16,27.90
2021,08,01,15,17,27.90
2021,08,01,15,18,27.90
2021,08,01,15,19,27.90
2021,08,01,15,20,27.90
2021,08,01,15,21,27.90
2021,08,01,15,22,27.90
2021,08,01,15,23,27.90
2021,08,01,15,24,27.90
2021,08,01,15,25,27.90
2021,08,01,15,26,27.80
2021,08,01,15,27,27.80
2021,08,01,15,28,27.70
2021,08,01,15,29,27.70
2021,08,01,15,30,27.70
2021,08,01,15,31,27.60
2021,08,01,15,32,27.60
2021,08,01,15,33,27.50
2021,08,01,15,34,27.50
2021,08,01,15,35,27.50
2021,08,01,15,36,27.50
2021,08,01,15,37,27.50
2021,08,01,15,38,27.40
2021,08,01,15,39,27.40
2021,08,01,15,40,27.50
2021,08,01,15,41,27.50
2021,08,01,15,42,27.60
2021,08,01,15,43,27.60
2021,08,01,15,44,27.70
2021,08,01,15,45,27.80
2021,08,01,15,46,27.80
2021,08,01,15,47,27.90
2021,08,01,15,48,27.90
2021,08,01,15,49,28.00
2021,08,01,15,50,28.10
2021,08,01,15,51,28.20
2021,08,01,15,52,28.30
2021,08,01,15,53,28.40
2021,08,01,15,54,28.40
2021,08,01,15,55,28.50
2021,08,01,15,56,28.50
2021,08,01,15,57,28.50
2021,08,01,15,58,28.50
2021,08,01,15,59,28.60
2021,08,01,16,00,28.50
2021,08,01,16,01,28.40
2021,08,01,16,02,28.30
2021,08,01,16,03,28.30
2021,08,01,16,04,28.30
2021,08,01,16,05,28.40
2021,08,01,16,06,28.40
2021,08,01,16,07,28.30
2021,08,01,16,08,28.30
2021,08,01,16,09,28.30
2021,08,01,16,10,28.30
2021,08,01,16,11,28.40
2021,08,01,16,12,28.40
2021,08,01,16,13,28.30
2021,08,01,16,14,28.30
2021,08,01,16,15,28.30
2021,08,01,16,16,28.30
2021,08,01,16,17,28.40
2021,08,01,16,18,28.40
2021,08,01,16,19,28.40
2021,08,01,16,20,28.30
2021,08,01,16,21,28.30
2021,08,01,16,22,28.30
2021,08,01,16,23,28.40
2021,08,01,16,24,28.40
2021,08,01,16,25,28.40
2021,08,01,16,26,28.40
2021,08,01,16,27,28.50
2021,08,01,16,28,28.50
2021,08,01,16,29,28.60
2021,08,01,16,30,28.70
2021,08,01,16,31,28.70
2021,08,01,16,32,28.80
2021,08,01,16,33,28.80
2021,08,01,16,34,28.90
2021,08,01,16,35,28.90
2021,08,01,16,36,28.90
2021,08,01,16,37,28.90
2021,08,01,16,38,28.90
2021,08,01,16,39,28.90
2021,08,01,16,40,29.00
2021,08,01,16,41,29.00
2021,08,01,16,42,28.90
2021,08,01,16,43,28.90
2021,08,01,16,44,28.80
2021,08,01,16,45,28.80
2021,08,01,16,46,28.70
2021,08,01,16,47,28.80
2021,08,01,16,48,28.70
2021,08,01,16,49,28.80
2021,08,01,16,50,28.70
2021,08,01,16,51,28.70
2021,08,01,16,52,28.60
2021,08,01,16,53,28.60
2021,08,01,16,54,28.60
2021,08,01,16,55,28.70
2021,08,01,16,56,28.70
2021,08,01,16,57,28.60
2021,08,01,16,58,28.70
2021,08,01,16,59,28.70
2021,08,01,17,00,28.70
2021,08,01,17,01,28.70
2021,08,01,17,02,28.70
2021,08,01,17,03,28.70
2021,08,01,17,04,28.70
2021,08,01,17,05,28.70
2021,08,01,17,06,28.60
2021,08,01,17,07,28.60
2021,08,01,17,08,28.50
2021,08,01,17,09,28.50
2021,08,01,17,10,28.50
2021,08,01,17,11,28.50
2021,08,01,17,12,28.50
2021,08,01,17,13,28.40
2021,08,01,17,14,28.40
2021,08,01,17,15,28.30
2021,08,01,17,16,28.30
2021,08,01,17,17,28.20
2021,08,01,17,18,28.20
2021,08,01,17,19,28.10